Weather History for K9L2 - September, 2013

Change the Weather History Date:

Sunday, September 15, 2013

  Actual Average (KEDW) Record (KEDW)
Temperature  
Mean Temperature 80 °F -  
Max Temperature 100 °F 89 °F 101 °F (2014)
Min Temperature 61 °F 56 °F 48 °F (2005)
Cooling Degree Days 14    
Growing Degree Days 30 (Base 50)    
Moisture  
Dew Point 40 °F    
Average Humidity 27    
Maximum Humidity 54    
Minimum Humidity 9    
Precipitation  
Precipitation 0.00 in - - ()
Sea Level Pressure  
Sea Level Pressure 29.74 in    
Wind  
Wind Speed 5 mph (SSW)    
Max Wind Speed 18 mph    
Max Gust Speed 25 mph    
Visibility 10 miles    
Events      
Averages and records for this station are not official NWS values.
T = Trace of Precipitation, MM = Missing Value Source: NWS Daily Summary

Daily Weather History Graph

Daily Weather History Graph

Search for Another Location

Airport or City:

Trip Planner

Search our weather history database for the weather conditions in past years. The results will help you decide how hot, cold, wet, or windy it might be!

Date:

Astronomy

Sep. 15, 2013 Rise Set
Actual Time 6:34 AM PDT 6:57 PM PDT
Civil Twilight 6:09 AM PDT 7:23 PM PDT
Nautical Twilight 5:39 AM PDT 7:52 PM PDT
Astronomical Twilight 5:09 AM PDT 8:23 PM PDT
Moon 4:22 PM PDT (9/15) 2:25 AM PDT (9/15)
Length of Visible Light 13h 13m
Length of Day
12h 23m
Waxing Gibbous, 83% of the Moon is Illuminated
Sep 15
Waxing Gibbous
Sep 19
Full
Sep 26
Last Quarter
Oct 4
New
Oct 11
First Quarter

Hourly Weather History & Observations

Time (PDT) Temp. Dew Point Humidity Pressure Visibility Wind Dir Wind Speed Gust Speed Precip Events Conditions
12:55 AM 73.9 °F 46.9 °F 38% 29.70 in 10.0 mi South 8.1 mph - N/A   Clear
1:55 AM 71.1 °F 46.9 °F 42% 29.71 in 10.0 mi South 5.8 mph - N/A   Clear
2:55 AM 69.1 °F 46.0 °F 44% 29.71 in 10.0 mi Calm Calm - N/A   Clear
3:55 AM 64.9 °F 45.0 °F 48% 29.72 in 10.0 mi North 3.5 mph - N/A   Clear
4:55 AM 64.9 °F 45.0 °F 48% 29.73 in 10.0 mi ENE 3.5 mph - N/A   Clear
5:55 AM 63.0 °F 44.1 °F 50% 29.74 in 10.0 mi Calm Calm - N/A   Clear
6:55 AM 61.0 °F 44.1 °F 54% 29.77 in 10.0 mi Calm Calm - N/A   Clear
7:55 AM 68.0 °F 45.0 °F 43% 29.78 in 10.0 mi Calm Calm - N/A   Clear
8:55 AM 75.9 °F 44.1 °F 32% 29.78 in 10.0 mi Calm Calm - N/A   Clear
9:55 AM 81.0 °F 43.0 °F 26% 29.78 in 10.0 mi SE 4.6 mph - N/A   Clear
10:55 AM 86.0 °F 43.0 °F 22% 29.78 in 10.0 mi SSE 3.5 mph - N/A   Clear
11:55 AM 91.9 °F 41.0 °F 17% 29.76 in 10.0 mi SSE 4.6 mph - N/A   Clear
12:55 PM 96.1 °F 33.1 °F 11% 29.75 in 10.0 mi SSE 8.1 mph - N/A   Clear
1:55 PM 98.1 °F 30.9 °F 9% 29.73 in 10.0 mi Variable 5.8 mph - N/A   Clear
2:55 PM 97.0 °F 32.0 °F 10% 29.71 in 10.0 mi Variable 5.8 mph - N/A   Clear
3:55 PM 98.1 °F 32.0 °F 10% 29.70 in 10.0 mi SSE 6.9 mph - N/A   Clear
4:55 PM 98.1 °F 34.0 °F 11% 29.69 in 10.0 mi WSW 16.1 mph 25.3 mph N/A   Clear
5:55 PM 96.1 °F 34.0 °F 11% 29.70 in 10.0 mi WSW 18.4 mph 23.0 mph N/A   Clear
6:55 PM 91.9 °F 34.0 °F 13% 29.71 in 10.0 mi WSW 12.7 mph - N/A   Clear
7:55 PM 88.0 °F 36.0 °F 16% 29.73 in 10.0 mi WSW 11.5 mph - N/A   Clear
8:55 PM 84.0 °F 35.1 °F 17% 29.75 in 10.0 mi WNW 5.8 mph - N/A   Clear
9:55 PM 80.1 °F 39.0 °F 23% 29.77 in 10.0 mi NW 4.6 mph - N/A   Clear
10:55 PM 77.0 °F 42.1 °F 29% 29.78 in 10.0 mi West 4.6 mph - N/A   Clear
11:55 PM 73.0 °F 35.1 °F 25% 29.78 in 10.0 mi Calm Calm - N/A   Clear